Home   Weather   Nîmes   Past weeks

Flag for France Past Weather in Nîmes, Languedoc-Roussillon, France — Yesterday and Last 2 Weeks

54 °F

Light rain. Overcast.

Feels Like: 52 °F
Forecast: 60 / 72 °F
Wind: 6 mph from East

Location: Nimes / Garons

Current Time: Oct 23, 2016 at 3:29:48 AM

Latest Report: Oct 23, 2016 at 3:00 AM

Visibility: N/A

Pressure: 29.83 "Hg

Humidity: 88%

Dew Point: 50 °F

Location of NîmesLocation

Past Weather in Nîmes — Graph


Nîmes Temperature Yesterday

Maximum temperature yesterday: 61 °F (at 1:30 PM)
Minimum temperature yesterday: 41 °F (at 4:30 AM)
Average temperature yesterday: 52 °F

High & Low Weather Summary for the Past Weeks

High70 °F (Oct 8, 3:00 PM)100% (Oct 14, 2:00 AM)30.24 "Hg (Oct 14, 2:00 AM)
Low41 °F (Oct 22, 4:30 AM)32% (Oct 9, 4:00 PM)29.53 "Hg (Oct 14, 6:00 AM)
Average56 °F70%29.98 "Hg
* Reported Oct 8 2:00 AM — Oct 23 2:00 AM, Nîmes, Weather by CustomWeather, © 2016

Note: Actual official high and low records may vary slightly from our data, if they occured in-between our weather recording intervals... More about our weather records


Nîmes Weather History for the Previous 24 Hours

Scroll right to see more
Time TempWeatherWind HumidityBarometerVisibility
2:00 AM
Sun, Oct 23
54 °FRain. Mostly cloudy.9 mph88%29.86 "Hg4 mi
1:30 AM54 °FLight rain. Overcast.10 mph94%29.86 "HgN/A
1:00 AM54 °FLight rain. Overcast.8 mph94%29.86 "HgN/A
12:30 AM54 °FOvercast.8 mph94%29.86 "HgN/A
12:00 AM54 °FLight rain. Mostly cloudy.6 mph94%29.89 "Hg4 mi
11:30 PM
Sat, Oct 22
54 °FHeavy rain. Overcast.7 mph94%29.89 "Hg5 mi
11:00 PM54 °FDrizzle. Mostly cloudy.8 mph94%29.89 "HgN/A
10:30 PM54 °FDrizzle. Mostly cloudy.7 mph94%29.89 "HgN/A
10:00 PM54 °FLight rain. Mostly cloudy.8 mph94%29.89 "Hg4 mi
9:30 PM54 °FLight rain. Passing clouds.10 mph94%29.89 "Hg6 mi
9:00 PM54 °FLight rain. Fog.6 mph100%29.92 "Hg3 mi
8:30 PM54 °FLight rain. Fog.7 mph100%29.89 "Hg3 mi
8:00 PM55 °FDrizzle. Mostly cloudy.2 mph94%29.92 "Hg6 mi
7:30 PM55 °FDrizzle. Overcast.3 mph94%29.89 "Hg4 mi
7:00 PM55 °FLight rain. Overcast.3 mph88%29.89 "Hg4 mi
6:30 PM55 °FOvercast.7 mph82%29.89 "HgN/A
6:00 PM57 °FMostly cloudy.3 mph72%29.89 "HgN/A
5:30 PM57 °FMostly cloudy.3 mph72%29.89 "HgN/A
5:00 PM59 °FOvercast.6 mph59%29.89 "HgN/A
4:30 PM59 °FOvercast.6 mph59%29.89 "HgN/A
4:00 PM59 °FOvercast.5 mph59%29.89 "HgN/A
3:30 PM59 °FOvercast.6 mph63%29.89 "HgN/A
3:00 PM59 °FOvercast.6 mph63%29.89 "HgN/A
2:30 PM59 °FOvercast.7 mph59%29.92 "HgN/A
2:00 PM59 °FPartly sunny.8 mph59%29.92 "HgN/A
1:30 PM61 °FPassing clouds.6 mph55%29.92 "HgN/A
1:00 PM59 °FPassing clouds.6 mph59%29.92 "HgN/A
12:30 PM59 °FPassing clouds.6 mph59%29.92 "HgN/A
12:00 PM57 °FPassing clouds.6 mph59%29.95 "HgN/A
11:30 AM55 °FSunny.8 mph67%29.95 "Hg10 mi
11:00 AM54 °FPassing clouds.7 mph67%29.92 "HgN/A
10:30 AM52 °FPassing clouds.8 mph72%29.92 "HgN/A
10:00 AM50 °FSunny.8 mph76%29.95 "Hg10 mi
9:30 AM48 °FSunny.7 mph76%29.92 "Hg10 mi
9:00 AM46 °FSunny.6 mph82%29.92 "Hg10 mi
8:30 AM45 °FSunny.7 mph81%29.92 "Hg10 mi
8:00 AM45 °FClear.7 mph81%29.92 "Hg10 mi
7:30 AM45 °FClear.6 mph81%29.92 "Hg10 mi
7:00 AM45 °FClear.7 mph81%29.92 "Hg10 mi
6:30 AM45 °FClear.7 mph81%29.92 "Hg10 mi
6:00 AM45 °FClear.8 mph81%29.92 "Hg10 mi
5:30 AM45 °FClear.7 mph76%29.92 "Hg10 mi
5:00 AM45 °FClear.6 mph76%29.92 "Hg10 mi
4:30 AM41 °FClear.5 mph81%29.92 "Hg10 mi
4:00 AM45 °FClear.5 mph76%29.92 "Hg10 mi
3:30 AM45 °FClear.3 mph81%29.95 "Hg10 mi
3:00 AM45 °FClear.5 mph76%29.92 "Hg10 mi
Weather by CustomWeather, © 2016

See weather overviewHow to use our weather pages